VanZyl-2

operational
NORAD ID: 64573 Int'l Des: 2025-135 Owner: HYDRO Country: L
LEOCIRCULARRETROGRADESSO

Über VanZyl-2

Beschreibung wird geladen...

Live-Position

3D-Globus wird geladen...

Nächste Überflüge

Höhenverlauf

Altitude vs Time

uPlot chart will show altitude changes over time

Zweizeiliger Elementsatz

1 64573U 25135AX 26061.26921248 .00003353 00000-0 32351-3 0 9991
2 64573 97.7511 176.7048 0001574 345.1628 14.9546 14.93540224 37920
Epoch: 2. März 2026 • Age: 39 hours

Aktueller Status

Höhe 600.7 km
Geschwindigkeit 7.57 km/s
Subsatellitenpunkt 79.82°N, 19.82°E
Startdatum 23. Juni 2025
Alter 0.6 years
Typ other

Technische Details

Klassifizierung Payload
Masse 130.00 kg
Trockenmasse 130.00 kg
Gesamtmasse 130.00 kg
Länge 1.20 m
Durchmesser 0.80 m
Spannweite 4.90 m
Form Box+ 2 pan
Hersteller MUON
Bus-Typ Muon
Phasenstatus In Orbit
Besitzer/Staat HYDRO/L

Große Konstellationen

Loading constellations...